Weather in South Lake Tahoe

United States     38°56′03″N   119°58′36″W
temp.,
°C
wind,
m/s
gust,
m/s
humid.,
%
clouds,
%
prec.,
mm/h
press.,
hPa
HPBL,
m
23 may, mon
mon2323:00+10w3352100 0.0 101736
02:00+7wnw116060 0.0 101912
05:00+6ne01565 0.0 101810
08:00+5ese115244 0.0 101810
11:00+8e224086 0.0 1018213
14:00+11ne223596 0.0 1017694
17:00+12ne123095 0.0 10161054
20:00+15ne1229100 0.0 10131356
24 may, tue
tue2423:00+12w224490 0.0 101411
02:00+9wnw00522 0.0 101510
05:00+8ene11455 0.0 101610
08:00+7se22454 0.0 101611
11:00+10ese22395 0.0 1016202
14:00+13ene22335 0.0 1015569
17:00+15nne22325 0.0 1014841
20:00+17n123112 0.0 10111184
25 may, wed
wed2523:00+14w22485 0.0 101311
02:00+12ene22420 0.0 101511
05:00+10ese22412 0.0 101510
08:00+9se11435 0.0 101511
11:00+12ese22355 0.0 1015154
14:00+17ne1231100 0.0 10131024
17:00+20w6729100 0.0 10101484
20:00+18wsw8934100 0.0 10111008
26 may, thu
thu2623:00+13wsw3350100 0.0 101342
02:00+11sw335565 0.0 101517
05:00+10sw33545 0.0 101420
08:00+9sw33565 0.0 101419
11:00+13sw35455 0.0 1013449
14:00+17wsw81132100 0.0 10111214
17:00+17wsw91233100 0.0 10121289
20:00+14wsw91338100 0.0 1012939
27 may, fri
fri2723:00+10wsw4643100 0.0 1015161
02:00+8sw3348100 0.0 101731
05:00+7sw3348100 0.0 101623
08:00+7sw3349100 0.0 101624
11:00+10sw2544100 0.0 1016403
14:00+13wsw71039100 0.0 1015925
17:00+14wsw91234100 0.0 1014959
20:00+12wsw91342100 0.0 1014793